TimeCST,TemperatureF,Dew PointF,Humidity,Sea Level PressureIn,VisibilityMPH,Wind Direction,Wind SpeedMPH,Gust SpeedMPH,PrecipitationIn,Events,Conditions,WindDirDegrees,DateUTC
12:58 AM,41.4,28.4,60,30.25,10.0,SSE,5.8,-,N/A,,Clear,150,2013-11-09 06:58:00
1:58 AM,39.9,29.1,65,30.23,10.0,SE,3.5,-,N/A,,Clear,130,2013-11-09 07:58:00
2:58 AM,40.5,27.3,59,30.22,10.0,SSE,8.1,-,N/A,,Clear,150,2013-11-09 08:58:00
3:17 AM,41.0,26.6,57,30.21,9.0,South,5.8,-,N/A,,Clear,170,2013-11-09 09:17:00
3:44 AM,39.2,26.6,61,30.21,5.0,South,2.3,-,N/A,,Haze,180,2013-11-09 09:44:00
3:58 AM,39.2,27.3,62,30.23,5.0,South,1.2,-,N/A,,Haze,180,2013-11-09 09:58:00
4:33 AM,37.4,28.4,70,30.23,5.0,Calm,Calm,-,N/A,,Haze,0,2013-11-09 10:33:00
4:45 AM,37.4,28.4,70,30.23,5.0,SE,1.2,-,N/A,,Haze,130,2013-11-09 10:45:00
4:58 AM,37.0,28.6,71,30.25,5.0,South,2.3,-,N/A,,Haze,180,2013-11-09 10:58:00
5:33 AM,39.2,26.6,61,30.23,5.0,South,5.8,-,N/A,,Haze,180,2013-11-09 11:33:00
5:58 AM,39.7,27.0,60,30.25,5.0,South,5.8,-,N/A,,Haze,180,2013-11-09 11:58:00
6:09 AM,39.2,26.6,61,30.23,6.0,South,8.1,-,N/A,,Haze,180,2013-11-09 12:09:00
6:58 AM,41.2,26.4,56,30.25,4.0,South,6.9,-,N/A,,Haze,190,2013-11-09 12:58:00
7:58 AM,43.3,27.3,53,30.27,4.0,SSW,6.9,-,N/A,,Haze,200,2013-11-09 13:58:00
8:58 AM,50.0,29.3,45,30.27,10.0,SSW,9.2,-,N/A,,Clear,200,2013-11-09 14:58:00
9:58 AM,51.1,30.2,45,30.27,10.0,SSW,11.5,-,N/A,,Clear,200,2013-11-09 15:58:00
10:58 AM,57.0,31.3,38,30.25,6.0,SW,16.1,-,N/A,,Haze,220,2013-11-09 16:58:00
11:58 AM,60.8,31.3,33,30.22,10.0,SW,18.4,26.5,N/A,,Clear,220,2013-11-09 17:58:00
12:58 PM,61.9,30.6,31,30.19,10.0,SW,20.7,-,N/A,,Clear,220,2013-11-09 18:58:00
1:58 PM,62.2,31.8,32,30.17,10.0,SW,15.0,-,N/A,,Clear,220,2013-11-09 19:58:00
2:58 PM,62.1,31.6,32,30.17,10.0,SSW,13.8,-,N/A,,Overcast,210,2013-11-09 20:58:00
3:58 PM,60.3,32.5,35,30.19,10.0,SSW,10.4,-,N/A,,Partly Cloudy,200,2013-11-09 21:58:00
4:58 PM,56.5,32.0,39,30.20,10.0,SSW,9.2,-,N/A,,Clear,200,2013-11-09 22:58:00
5:58 PM,53.4,34.2,48,30.22,10.0,SW,8.1,-,N/A,,Overcast,230,2013-11-09 23:58:00
6:58 PM,50.0,35.6,58,30.24,10.0,SSW,5.8,-,N/A,,Clear,210,2013-11-10 00:58:00
7:58 PM,50.2,35.8,58,30.24,10.0,SW,6.9,-,N/A,,Clear,220,2013-11-10 01:58:00
8:58 PM,46.2,36.7,69,30.24,10.0,SW,6.9,-,N/A,,Clear,230,2013-11-10 02:58:00
9:58 PM,46.2,36.5,69,30.25,10.0,SW,5.8,-,N/A,,Clear,230,2013-11-10 03:58:00
10:58 PM,47.1,37.0,68,30.25,10.0,SW,3.5,-,N/A,,Clear,220,2013-11-10 04:58:00
11:58 PM,45.1,37.8,75,30.25,10.0,SSW,3.5,-,N/A,,Clear,210,2013-11-10 05:58:00